Flag for Spain Weather past 2 weeks in Linares, Spain

Now
30 °F

Clear.


Feels Like: 30 °F
Forecast: 39 / 62 °F
Wind: No wind

Location: Granada / Aeropuerto

Current Time: Dec 20, 2014 at 7:45:35 AM

Latest Report: Dec 20, 2014 at 7:00 AM


Visibility: 4 mi

Pressure: 30.45 "Hg

Humidity: 100%

Dew point: 30 °F

Location of LinaresLocation

Historic Weather in Linares — Graph

°F

Linares temperature yesterday

Maximum temperature yesterday: 70 °F (at 5:30 PM)
Minimum temperature yesterday: 32 °F (at 6:00 AM)
Average temperature yesterday: 48 °F

Past Weeks' High & Low Weather Summary

 TemperatureHumidityPressure
High70 °F (Dec 19, 5:30 PM)100% (Dec 5, 6:00 AM)30.51 "Hg (Dec 5, 6:00 AM)
Low25 °F (Dec 8, 7:00 AM)27% (Dec 12, 4:30 PM)29.86 "Hg (Dec 14, 2:30 PM)
Average45 °F77%30.23 "Hg
* Reported Dec 5 6:00 AM — Dec 20 6:30 AM, Linares, Weather by CustomWeather, © 2014

Note: Actual official high and low records may vary slightly from our data, if they occured in-between our weather recording intervals... More about our weather records

Advertising

Linares weather history for previous 24 hours

 ConditionsComfort  
Time TempWeatherWind HumidityBarometerVisibility
6:30 AM
Dec 20
30 °FClear.1 mph100%30.45 "Hg4 mi
6:00 AM32 °FClear.No wind100%30.45 "Hg4 mi
11:00 PM
Dec 19
37 °FClear.No wind93%30.45 "Hg10 mi
10:30 PM39 °FClear.No wind93%30.45 "Hg10 mi
10:00 PM41 °FClear.1 mph93%30.45 "Hg10 mi
9:30 PM41 °FClear.No wind87%30.45 "Hg10 mi
9:00 PM43 °FClear.1 mph87%30.45 "Hg10 mi
8:30 PM45 °FClear.1 mph81%30.42 "Hg10 mi
8:00 PM45 °FClear.No wind81%30.42 "Hg10 mi
7:30 PM48 °FClear.No wind76%30.42 "Hg10 mi
7:00 PM48 °FClear.5 mph82%30.39 "Hg10 mi
6:30 PM50 °FClear.2 mph76%30.39 "Hg10 mi
6:00 PM57 °FClear.No wind59%30.39 "Hg10 mi
5:30 PM70 °FSunny.No wind33%30.39 "Hg10 mi
5:00 PM66 °FSunny.No wind40%30.39 "Hg10 mi
4:30 PM66 °FSunny.2 mph37%30.36 "Hg10 mi
4:00 PM66 °FSunny.1 mph40%30.36 "Hg10 mi
3:30 PM68 °FSunny.No wind38%30.36 "Hg10 mi
3:00 PM66 °FSunny.No wind40%30.39 "Hg10 mi
2:30 PM64 °FSunny.No wind46%30.39 "Hg10 mi
2:00 PM63 °FSunny.No wind49%30.39 "Hg10 mi
1:30 PM59 °FSunny.No wind55%30.42 "Hg10 mi
1:00 PM57 °FSunny.No wind59%30.42 "Hg10 mi
12:30 PM52 °FSunny.No wind72%30.45 "Hg10 mi
12:00 PM50 °FSunny.No wind71%30.45 "Hg10 mi
11:30 AM46 °FSunny.No wind76%30.48 "Hg10 mi
11:00 AM45 °FSunny.No wind81%30.48 "Hg10 mi
10:30 AM41 °FClear.No wind87%30.48 "Hg6 mi
10:00 AM43 °FClear.No wind76%30.45 "Hg6 mi
9:30 AM37 °FClear.No wind93%30.45 "Hg6 mi
9:00 AM32 °FClear.No wind100%30.45 "Hg6 mi
8:30 AM32 °FSunny.1 mph100%30.42 "Hg10 mi
8:00 AM32 °FClear.No wind93%30.42 "Hg10 mi
7:30 AM32 °FClear.No wind93%30.42 "Hg10 mi
7:00 AM32 °FClear.No wind100%30.39 "Hg10 mi
Weather by CustomWeather, © 2014

See weather overviewHow to use our weather pages